GW1082 Weather Reports


Display with metric or nautical units.
time (UTC)temp
F
wind
direction
speed
MPH
gust
MPH
rain 1hr
in
rain 24hr
in
rain mn
in
humidity
%
barometer
mb
20260506221526 50 302 2.0 7.0 0.00 0.00 0.00 40 1015.0
20260506220026 51 258 3.0 11.0 0.00 0.00 0.00 38 1015.2
20260506214528 51 284 4.0 11.0 0.00 0.00 0.00 38 1015.2
20260506213018 50 255 3.0 12.0 0.00 0.00 0.00 40 1015.4
20260506211524 51 281 4.0 10.0 0.00 0.00 0.00 39 1015.4
20260506210028 50 359 3.0 13.0 0.00 0.00 0.00 39 1015.8
20260506204528 50 284 3.0 9.0 0.00 0.00 0.00 38 1015.8
20260506203017 50 289 4.0 11.0 0.00 0.00 0.00 42 1016.0
20260506201504 49 304 4.0 13.0 0.00 0.00 0.00 40 1016.1
20260506200005 49 313 4.0 12.0 0.00 0.00 0.00 41 1016.1
20260506194515 48 276 3.0 9.0 0.00 0.00 0.00 44 1016.4
20260506193016 48 300 5.0 10.0 0.00 0.00 0.00 43 1016.5
20260506191518 47 360 6.0 14.0 0.00 0.00 0.00 41 1016.6
20260506190006 47 322 3.0 9.0 0.00 0.00 0.00 43 1016.8
20260506184507 46 236 3.0 10.0 0.00 0.00 0.00 44 1016.8
20260506183013 46 321 3.0 11.0 0.00 0.00 0.00 43 1016.8
20260506181516 46 338 5.0 13.0 0.00 0.00 0.00 43 1017.0
20260506180024 46 276 3.0 9.0 0.00 0.00 0.00 44 1017.2
20260506174507 46 310 3.0 9.0 0.00 0.00 0.00 47 1017.2
20260506173012 45 311 3.0 12.0 0.00 0.00 0.00 44 1017.4
20260506171513 44 258 3.0 9.0 0.00 0.00 0.00 44 1017.4
20260506170022 44 276 3.0 8.0 0.00 0.00 0.00 46 1017.6
20260506164522 43 319 3.0 12.0 0.00 0.00 0.00 48 1017.5
20260506163009 43 354 3.0 10.0 0.00 0.00 0.00 46 1017.7
20260506161511 43 359 4.0 11.0 0.00 0.00 0.00 48 1017.6
20260506160021 42 332 2.0 9.0 0.00 0.00 0.00 48 1017.6
20260506154522 42 262 3.0 11.0 0.00 0.00 0.00 50 1017.7
20260506153023 42 274 3.0 10.0 0.00 0.00 0.00 49 1017.9
20260506151512 41 293 6.0 10.0 0.00 0.00 0.00 49 1018.0
20260506150014 40 284 3.0 11.0 0.00 0.00 0.00 51 1018.0
20260506144523 40 272 4.0 10.0 0.00 0.00 0.00 51 1017.9
20260506143032 39 340 4.0 10.0 0.00 0.00 0.00 53 1018.1
20260506141526 39 360 3.0 10.0 0.00 0.00 0.00 54 1017.9
20260506140014 39 359 3.0 9.0 0.00 0.00 0.00 56 1018.0
20260506134517 38 359 4.0 8.0 0.00 0.00 0.00 56 1018.0
20260506133023 38 288 4.0 11.0 0.00 0.00 0.00 57 1017.8
20260506131525 37 333 3.0 8.0 0.00 0.00 0.00 61 1017.7
20260506130010 37 341 4.0 7.0 0.00 0.00 0.00 63 1017.6
20260506124514 37 315 2.0 6.0 0.00 0.00 0.00 65 1017.6
20260506123018 36 303 1.0 4.0 0.00 0.00 0.00 67 1017.4
20260506121524 36 335 1.0 6.0 0.00 0.00 0.00 69 1017.3
20260506120027 35 326 1.0 2.0 0.00 0.00 0.00 73 1017.0
20260506114512 34 319 0.0 2.0 0.00 0.00 0.00 72 1016.7
20260506113018 34 315 0.0 2.0 0.00 0.00 0.00 71 1016.5
20260506111519 34 325 0.0 2.0 0.00 0.00 0.00 71 1016.5
20260506110004 34 331 0.0 2.0 0.00 0.00 0.00 70 1016.3
20260506104507 34 331 0.0 2.0 0.00 0.00 0.00 68 1016.1
20260506103015 34 324 0.0 2.0 0.00 0.00 0.00 69 1016.1
20260506101518 33 324 0.0 0.0 0.00 0.00 0.00 70 1016.0
20260506100022 33 331 0.0 2.0 0.00 0.00 0.00 71 1016.0
20260506094506 33 331 0.0 0.0 0.00 0.00 0.00 72 1016.0
20260506093015 33 331 0.0 0.0 0.00 0.00 0.00 71 1016.0
20260506091516 33 331 0.0 0.0 0.00 0.00 0.00 70 1016.1
20260506090023 33 331 0.0 2.0 0.00 0.00 0.00 69 1016.0
20260506084524 33 350 0.0 2.0 0.00 0.00 0.00 69 1015.9
20260506083006 33 353 0.0 2.0 0.00 0.00 0.00 69 1015.5
20260506081512 34 354 0.0 2.0 0.00 0.00 0.00 69 1015.8
20260506073028 34 344 0.0 0.0 0.00 0.00 0.00 65 1015.8
20260506071510 34 352 0.0 0.0 0.00 0.00 0.00 65 1015.6
20260506061533 35 357 0.0 2.0 0.00 0.00 0.00 62 1015.9
20260506044513 38 314 0.0 2.0 0.00 0.00 0.00 59 1015.3
20260506043019 38 345 0.0 2.0 0.00 0.00 0.00 60 1015.1
20260506041524 38 307 0.0 2.0 0.00 0.00 0.00 60 1015.1
20260506040049 37 347 1.0 3.0 0.00 0.00 0.00 59 1015.1
20260506034526 37 322 0.0 2.0 0.00 0.00 0.00 60 1015.2
20260506033019 37 339 0.0 0.0 0.00 0.00 0.00 60 1015.1
20260506031538 37 339 0.0 0.0 0.00 0.00 0.00 59 1014.9
20260506030025 38 339 0.0 0.0 0.00 0.00 0.00 57 1014.7
20260506024528 38 359 1.0 2.0 0.00 0.00 0.00 55 1014.6
20260506023029 39 321 1.0 3.0 0.00 0.00 0.00 55 1014.3
20260506021518 39 332 0.0 2.0 0.00 0.00 0.00 54 1014.1
20260506020006 40 319 0.0 4.0 0.00 0.00 0.00 52 1013.9
20260506014511 41 328 2.0 6.0 0.00 0.00 0.00 50 1013.7
20260506013011 42 347 2.0 6.0 0.00 0.00 0.00 48 1013.5
20260506011519 43 321 2.0 7.0 0.00 0.00 0.00 46 1013.4
20260506010022 43 341 4.0 8.0 0.00 0.00 0.00 45 1013.2
20260506004511 44 322 2.0 9.0 0.00 0.00 0.00 45 1013.2
20260506003012 44 328 4.0 11.0 0.00 0.00 0.00 45 1013.4
20260506001515 44 359 3.0 14.0 0.00 0.00 0.00 45 1013.4
20260506000021 44 333 4.0 9.0 0.00 0.00 0.00 44 1013.3
20260505234524 44 325 5.0 12.0 0.00 0.00 0.00 43 1013.2
20260505233006 45 336 3.0 13.0 0.00 0.00 0.00 43 1012.9
20260505231510 45 250 4.0 13.0 0.00 0.00 0.00 41 1013.1
20260505230026 46 337 5.0 9.0 0.00 0.00 0.00 42 1012.9
20260505224524 46 311 5.0 10.0 0.00 0.00 0.00 41 1012.7
20260505223025 46 316 3.0 8.0 0.00 0.00 0.00 41 1012.7